User: anonymous
Location: Terra Rouge Observatory
(46.0000°N, 62.7500°W)
Time: 21:00:33
(UTC-03:00)
Language:

NOSS 3-1 (A) - Orbit

View from above orbital plane
View from above orbital plane
View from above satellite
View from above satellite

Ground track
Ground track

The orbit data is extracted from the following two-line orbital elements,

1 26905U 01040A   14238.82450173 0.00000000  00000-0  00000-0 0    08
2 26905  63.4260 129.5295 0281000 357.3309   2.6691 13.40694025    07
Epoch (UTC): 26 August 2014 19:47:16
Eccentricity: 0.0281000
inclination: 63.4260°
perigee height: 896 km
apogee height: 1317 km
right ascension of ascending node: 129.5295°
argument of perigee: 357.3309°
revolutions per day: 13.40694025
mean anomaly at epoch: 2.6691°
orbit number at epoch: 0

The dashed part of the orbit path shows where the satellite is in the earth's shadow,  

DLR